Location: Unspecified
(0.0000°N, 0.0000°E)
Time: 09:29:49
(UTC+02:00)

Haruka - Visible Passes

Search period start: 24 April 2017 00:00
Search period end: 04 May 2017 00:00
Orbit: 536 x 21221 km, 31.2° (Epoch: 22 April)

Date Brightness Start Highest point End Pass type
(mag) Time Alt. Az. Time Alt. Az. Time Alt. Az.
24 Apr 7.3 08:54:44 10° W 10:01:52 21° NW 10:12:50 10° N visible
24 Apr 8.7 23:30:26 10° SW 03:22:57 72° ESE 04:44:11 10° ENE visible
26 Apr 8.8 00:44:20 10° SW 04:56:08 88° NW 05:54:01 10° NE visible
26 Apr 6.8 19:01:21 10° WSW 19:10:25 40° S 20:26:53 10° ESE visible
27 Apr 8.5 02:01:54 10° SW 06:24:29 67° NW 07:02:14 10° NE visible
27 Apr 7.7 20:09:55 10° WSW 20:26:01 37° S 00:57:45 10° E visible
28 Apr 8.1 03:27:07 10° SW 07:44:32 48° NW 08:09:28 10° NNE visible
28 Apr 8.2 21:19:25 10° SW 21:55:37 41° SSE 02:26:59 10° ENE visible
29 Apr 7.6 05:16:48 10° WSW 09:00:06 30° NW 09:15:59 10° NNE visible
29 Apr 8.5 22:30:00 10° SW 02:05:27 62° ESE 03:43:04 10° ENE visible
30 Apr 7.2 09:54:10 10° WNW 10:13:48 15° NW 10:21:23 10° N visible
30 Apr 8.8 23:42:04 10° SW 03:34:41 82° ESE 04:54:28 10° NE visible
02 May 8.7 00:56:29 10° SW 05:07:53 77° WNW 06:03:37 10° NE visible
02 May 7.3 19:11:41 10° WSW 19:23:04 35° S 23:19:46 10° E visible
03 May 8.4 02:15:20 10° SW 06:36:10 57° NW 07:11:28 10° NE visible
